Location: Cortada de Papelón
(10.0378°N, 66.9528°W)
Time: 10:49:43
(UTC+00:00)

YAOGAN 1 - Pass Details

Date: 13 June 2024
Orbit: 611 x 613 km, 97.8° (Epoch: 19 July)

Event Time Altitude Azimuth Distance (km) Brightness Sun altitude
Rises 23:30:00 0° 168° (SSE) 2,871 5.6 -9.9°
Reaches altitude 10° 23:32:10 10° 168° (SSE) 1,966 4.8 -10.4°
Maximum altitude 23:36:27 88° 83° (E) 617 2.5 -11.3°
Drops below altitude 10° 23:40:44 10° 349° (N) 1,966 5.7 -12.3°
Sets 23:42:55 0° 349° (N) 2,870 6.6 -12.8°
